GEFSGL_prec_meanprecacc_144.txt.gz
Total_Precipitation_Accumulation
0.71 0.76 0.76 0.71 0.73 0.78 0.77 0.73 0.67 0.70 0.78 0.89 0.95 1.09 1.24 1.43 1.61 1.76 1.77 1.76 1.80 1.78 1.72 1.80 1.90 2.01 2.12 2.14 2.10 1.97 1.83 1.79 1.70 1.53 1.33 1.19 1.32 1.37 1.31 1.25 1.16 1.07 1.00
0.70 0.73 0.75 0.67 0.62 0.65 0.66 0.68 0.59 0.56 0.62 0.71 0.84 1.05 1.16 1.25 1.30 1.38 1.46 1.49 1.51 1.56 1.55 1.52 1.60 1.72 1.86 2.00 2.07 2.01 2.01 1.91 1.81 1.76 1.58 1.34 1.23 1.30 1.34 1.41 1.33 1.14 1.05
0.85 0.90 0.83 0.70 0.66 0.65 0.61 0.64 0.59 0.56 0.61 0.66 0.80 0.95 1.01 1.06 1.10 1.12 1.22 1.30 1.31 1.29 1.34 1.31 1.33 1.43 1.57 1.69 1.77 1.85 1.97 2.00 1.99 1.89 1.79 1.59 1.36 1.37 1.40 1.39 1.40 1.47 1.26
1.10 1.06 0.90 0.77 0.70 0.64 0.60 0.56 0.57 0.59 0.62 0.69 0.84 0.94 0.95 0.91 1.00 1.03 1.08 1.12 1.09 1.04 1.07 1.08 1.13 1.17 1.24 1.36 1.50 1.71 1.90 2.01 2.07 2.05 1.95 1.72 1.54 1.52 1.50 1.47 1.52 1.57 1.53
1.05 0.94 0.80 0.68 0.58 0.53 0.56 0.53 0.54 0.61 0.64 0.71 0.76 0.87 0.92 0.90 0.93 0.99 0.98 0.93 0.92 0.91 0.87 0.78 0.80 0.86 0.87 0.95 1.01 1.29 1.54 1.76 1.89 1.96 1.92 1.78 1.57 1.47 1.37 1.40 1.52 1.66 1.73
0.93 0.81 0.64 0.56 0.53 0.49 0.48 0.45 0.44 0.47 0.53 0.58 0.64 0.80 0.91 0.82 0.93 0.92 0.85 0.78 0.75 0.79 0.76 0.69 0.67 0.71 0.62 0.59 0.63 0.85 1.14 1.34 1.53 1.71 1.76 1.63 1.50 1.42 1.47 1.47 1.46 1.49 1.52
0.63 0.58 0.47 0.41 0.40 0.39 0.38 0.38 0.41 0.43 0.47 0.52 0.56 0.73 0.83 0.91 0.85 0.70 0.74 0.74 0.74 0.77 0.79 0.80 0.73 0.69 0.76 0.67 0.62 0.69 0.77 0.89 1.04 1.30 1.53 1.52 1.61 1.53 1.44 1.38 1.38 1.40 1.40
0.52 0.51 0.44 0.39 0.36 0.36 0.34 0.36 0.44 0.45 0.44 0.49 0.55 0.59 0.67 0.80 0.74 0.59 0.63 0.63 0.74 0.81 0.84 0.93 0.94 0.87 0.84 0.92 0.87 0.88 0.85 0.78 0.84 0.76 0.98 1.36 1.49 1.54 1.49 1.51 1.58 1.51 1.39
0.30 0.35 0.34 0.29 0.31 0.34 0.34 0.39 0.43 0.44 0.48 0.50 0.55 0.58 0.64 0.68 0.64 0.57 0.60 0.67 0.79 0.82 0.79 0.90 0.94 0.88 0.92 0.97 1.10 1.16 1.09 0.94 1.04 1.05 0.97 1.08 1.22 1.27 1.37 1.46 1.50 1.41 1.36
0.10 0.14 0.19 0.19 0.23 0.29 0.38 0.44 0.42 0.41 0.47 0.48 0.47 0.47 0.52 0.55 0.60 0.50 0.61 0.73 0.78 0.80 0.81 0.87 1.01 0.93 0.90 0.88 0.97 1.11 1.09 0.97 0.85 0.88 0.86 0.76 0.70 0.81 1.01 1.17 1.42 1.51 1.43
0.02 0.04 0.07 0.11 0.17 0.26 0.33 0.32 0.33 0.36 0.40 0.41 0.44 0.44 0.45 0.52 0.63 0.64 0.69 0.72 0.76 0.83 0.92 0.97 0.95 1.02 0.86 0.83 0.84 0.85 0.94 0.92 0.90 0.95 1.01 0.91 0.80 0.76 0.80 0.88 1.07 1.27 1.37
0.01 0.01 0.02 0.04 0.07 0.12 0.20 0.23 0.26 0.30 0.32 0.32 0.33 0.34 0.38 0.49 0.57 0.59 0.61 0.66 0.74 0.76 0.81 0.82 0.78 0.86 0.72 0.64 0.59 0.66 0.73 0.78 0.86 0.99 0.98 0.94 0.93 0.88 0.85 0.87 0.93 1.01 1.10
0.00 0.00 0.00 0.01 0.02 0.06 0.12 0.17 0.21 0.27 0.30 0.28 0.26 0.29 0.33 0.37 0.45 0.48 0.48 0.48 0.51 0.55 0.53 0.62 0.62 0.61 0.56 0.50 0.54 0.59 0.62 0.64 0.75 0.82 0.84 0.81 0.82 0.87 0.87 0.87 0.89 0.92 0.89
0.00 0.00 0.00 0.01 0.01 0.03 0.06 0.13 0.21 0.24 0.23 0.24 0.26 0.28 0.32 0.35 0.35 0.37 0.41 0.41 0.40 0.45 0.44 0.46 0.46 0.45 0.47 0.48 0.50 0.55 0.61 0.66 0.70 0.72 0.71 0.74 0.75 0.82 0.88 0.86 0.84 0.89 0.92
0.00 0.00 0.00 0.01 0.02 0.02 0.02 0.06 0.13 0.16 0.15 0.18 0.24 0.28 0.33 0.36 0.32 0.28 0.29 0.36 0.42 0.47 0.53 0.47 0.43 0.44 0.47 0.53 0.55 0.54 0.58 0.63 0.64 0.63 0.65 0.66 0.66 0.71 0.76 0.76 0.77 0.79 0.78
0.00 0.00 0.01 0.01 0.02 0.02 0.02 0.04 0.06 0.06 0.08 0.09 0.11 0.15 0.15 0.14 0.15 0.15 0.18 0.23 0.30 0.37 0.52 0.58 0.60 0.65 0.67 0.66 0.64 0.55 0.51 0.53 0.59 0.64 0.64 0.64 0.65 0.64 0.68 0.71 0.71 0.74 0.73
0.00 0.00 0.01 0.01 0.02 0.02 0.03 0.06 0.06 0.04 0.03 0.03 0.04 0.05 0.08 0.09 0.11 0.14 0.15 0.19 0.22 0.28 0.47 0.63 0.65 0.63 0.60 0.58 0.55 0.48 0.43 0.41 0.44 0.53 0.61 0.68 0.69 0.69 0.71 0.75 0.73 0.68 0.66
0.01 0.01 0.01 0.02 0.03 0.03 0.05 0.08 0.14 0.17 0.13 0.05 0.03 0.03 0.05 0.07 0.09 0.13 0.20 0.26 0.25 0.27 0.41 0.50 0.51 0.51 0.45 0.38 0.33 0.29 0.29 0.28 0.29 0.34 0.40 0.48 0.63 0.73 0.81 0.82 0.82 0.82 0.79
0.01 0.02 0.02 0.05 0.05 0.06 0.07 0.12 0.15 0.15 0.12 0.07 0.05 0.04 0.05 0.05 0.06 0.08 0.14 0.21 0.22 0.21 0.23 0.24 0.24 0.26 0.27 0.24 0.21 0.21 0.22 0.23 0.24 0.26 0.28 0.33 0.42 0.55 0.71 0.81 0.83 0.87 0.85
0.01 0.01 0.02 0.05 0.06 0.05 0.06 0.08 0.10 0.10 0.08 0.07 0.07 0.07 0.08 0.09 0.10 0.10 0.11 0.14 0.17 0.16 0.14 0.14 0.14 0.15 0.16 0.17 0.17 0.19 0.22 0.23 0.22 0.24 0.28 0.33 0.41 0.46 0.51 0.59 0.70 0.74 0.68
0.01 0.01 0.02 0.03 0.06 0.06 0.06 0.05 0.06 0.08 0.07 0.06 0.06 0.05 0.07 0.12 0.14 0.12 0.11 0.12 0.14 0.15 0.15 0.14 0.14 0.14 0.15 0.19 0.21 0.21 0.21 0.22 0.23 0.24 0.26 0.32 0.40 0.47 0.50 0.51 0.53 0.56 0.59
0.01 0.01 0.02 0.05 0.07 0.07 0.07 0.06 0.07 0.08 0.07 0.06 0.07 0.07 0.08 0.12 0.14 0.15 0.15 0.15 0.16 0.18 0.19 0.20 0.20 0.21 0.21 0.22 0.25 0.26 0.26 0.25 0.25 0.25 0.27 0.28 0.31 0.36 0.41 0.46 0.49 0.50 0.50
0.01 0.02 0.02 0.04 0.06 0.06 0.07 0.07 0.07 0.08 0.09 0.08 0.08 0.08 0.09 0.12 0.14 0.15 0.17 0.17 0.18 0.19 0.21 0.26 0.28 0.28 0.28 0.29 0.29 0.29 0.29 0.29 0.30 0.31 0.33 0.33 0.31 0.31 0.33 0.35 0.36 0.38 0.41
0.04 0.05 0.05 0.07 0.07 0.07 0.08 0.09 0.09 0.09 0.09 0.09 0.10 0.12 0.13 0.14 0.15 0.14 0.14 0.15 0.17 0.19 0.21 0.23 0.26 0.28 0.31 0.33 0.34 0.34 0.34 0.34 0.31 0.31 0.36 0.40 0.39 0.37 0.36 0.36 0.37 0.37 0.40
0.07 0.08 0.08 0.09 0.09 0.10 0.09 0.10 0.10 0.10 0.11 0.12 0.13 0.14 0.15 0.16 0.16 0.16 0.16 0.17 0.18 0.18 0.20 0.21 0.22 0.24 0.29 0.36 0.38 0.37 0.41 0.41 0.35 0.32 0.32 0.36 0.38 0.39 0.40 0.42 0.43 0.46 0.50
0.08 0.08 0.08 0.09 0.10 0.12 0.13 0.14 0.14 0.15 0.16 0.15 0.15 0.16 0.16 0.17 0.17 0.18 0.18 0.19 0.19 0.19 0.20 0.23 0.25 0.25 0.27 0.33 0.39 0.44 0.44 0.41 0.40 0.41 0.36 0.35 0.38 0.41 0.45 0.49 0.52 0.56 0.59

GEFSGL_prec_meanprecacc_150.txt.gz
Total_Precipitation_Accumulation
0.71 0.77 0.77 0.72 0.73 0.78 0.77 0.73 0.67 0.70 0.78 0.89 0.95 1.09 1.25 1.43 1.61 1.76 1.77 1.76 1.80 1.78 1.72 1.80 1.90 2.01 2.12 2.14 2.11 1.97 1.83 1.80 1.71 1.55 1.34 1.20 1.33 1.38 1.31 1.26 1.17 1.08 1.02
0.71 0.73 0.75 0.67 0.62 0.65 0.66 0.68 0.59 0.56 0.62 0.71 0.84 1.05 1.16 1.25 1.30 1.38 1.46 1.49 1.52 1.56 1.55 1.52 1.60 1.72 1.86 2.00 2.08 2.02 2.01 1.92 1.82 1.78 1.59 1.34 1.24 1.31 1.35 1.42 1.35 1.15 1.06
0.85 0.91 0.84 0.70 0.66 0.65 0.61 0.64 0.59 0.56 0.61 0.66 0.80 0.95 1.01 1.06 1.10 1.12 1.22 1.30 1.31 1.29 1.34 1.31 1.33 1.43 1.57 1.69 1.77 1.85 1.97 2.01 2.00 1.90 1.80 1.60 1.37 1.38 1.42 1.41 1.43 1.50 1.27
1.10 1.06 0.90 0.77 0.70 0.64 0.60 0.56 0.57 0.59 0.62 0.69 0.84 0.94 0.95 0.91 1.00 1.03 1.08 1.12 1.09 1.04 1.07 1.08 1.13 1.17 1.24 1.36 1.50 1.71 1.90 2.01 2.08 2.06 1.97 1.74 1.55 1.53 1.51 1.49 1.54 1.60 1.57
1.06 0.94 0.80 0.68 0.58 0.53 0.56 0.53 0.54 0.61 0.64 0.71 0.76 0.87 0.92 0.90 0.93 0.99 0.98 0.93 0.92 0.91 0.87 0.78 0.80 0.86 0.87 0.95 1.01 1.29 1.54 1.76 1.90 1.98 1.95 1.81 1.60 1.48 1.37 1.41 1.53 1.68 1.75
0.93 0.81 0.64 0.56 0.53 0.49 0.48 0.45 0.44 0.47 0.53 0.58 0.64 0.80 0.91 0.82 0.93 0.92 0.85 0.78 0.75 0.79 0.76 0.69 0.67 0.71 0.62 0.59 0.63 0.85 1.14 1.34 1.53 1.71 1.77 1.65 1.52 1.43 1.47 1.48 1.47 1.51 1.54
0.63 0.58 0.48 0.42 0.40 0.39 0.38 0.38 0.41 0.43 0.47 0.52 0.56 0.73 0.83 0.91 0.85 0.70 0.74 0.74 0.74 0.77 0.79 0.80 0.73 0.69 0.76 0.67 0.62 0.69 0.77 0.89 1.04 1.31 1.53 1.52 1.61 1.53 1.44 1.39 1.39 1.42 1.43
0.52 0.51 0.44 0.39 0.36 0.36 0.34 0.36 0.44 0.45 0.44 0.49 0.55 0.59 0.67 0.80 0.74 0.59 0.63 0.63 0.74 0.81 0.84 0.93 0.94 0.87 0.85 0.92 0.87 0.88 0.85 0.78 0.84 0.77 0.98 1.36 1.50 1.55 1.49 1.51 1.59 1.51 1.40
0.30 0.35 0.34 0.29 0.31 0.34 0.34 0.39 0.43 0.44 0.48 0.50 0.55 0.58 0.64 0.68 0.64 0.57 0.60 0.67 0.80 0.82 0.79 0.90 0.94 0.88 0.92 0.98 1.11 1.17 1.09 0.94 1.04 1.05 0.97 1.08 1.22 1.28 1.38 1.47 1.51 1.43 1.38
0.10 0.14 0.19 0.19 0.23 0.29 0.38 0.44 0.42 0.41 0.47 0.48 0.47 0.47 0.52 0.55 0.60 0.50 0.61 0.73 0.78 0.80 0.81 0.87 1.01 0.93 0.90 0.88 0.97 1.11 1.10 0.98 0.85 0.89 0.86 0.76 0.71 0.82 1.01 1.17 1.43 1.52 1.45
0.02 0.04 0.07 0.11 0.17 0.26 0.33 0.32 0.33 0.36 0.40 0.41 0.44 0.44 0.45 0.52 0.63 0.64 0.70 0.72 0.77 0.84 0.93 0.97 0.95 1.03 0.86 0.83 0.84 0.85 0.94 0.94 0.91 0.96 1.01 0.91 0.81 0.76 0.80 0.88 1.08 1.28 1.39
0.01 0.01 0.02 0.04 0.07 0.13 0.20 0.23 0.26 0.30 0.32 0.32 0.33 0.34 0.38 0.49 0.57 0.59 0.62 0.67 0.75 0.76 0.82 0.82 0.78 0.86 0.72 0.64 0.60 0.66 0.74 0.79 0.88 1.00 0.99 0.95 0.94 0.89 0.87 0.89 0.94 1.04 1.13
0.00 0.00 0.01 0.01 0.02 0.06 0.12 0.17 0.21 0.27 0.30 0.28 0.26 0.29 0.33 0.37 0.45 0.48 0.49 0.49 0.52 0.55 0.54 0.62 0.62 0.61 0.57 0.50 0.54 0.59 0.62 0.65 0.76 0.84 0.86 0.83 0.83 0.89 0.89 0.89 0.91 0.94 0.93
0.00 0.00 0.01 0.01 0.01 0.03 0.06 0.13 0.21 0.24 0.23 0.24 0.26 0.28 0.32 0.35 0.36 0.37 0.41 0.41 0.41 0.46 0.45 0.47 0.46 0.46 0.47 0.48 0.50 0.55 0.62 0.67 0.70 0.73 0.73 0.76 0.77 0.84 0.91 0.88 0.87 0.92 0.96
0.00 0.00 0.00 0.01 0.02 0.02 0.02 0.06 0.13 0.16 0.15 0.18 0.24 0.28 0.33 0.36 0.32 0.29 0.30 0.36 0.43 0.48 0.53 0.48 0.44 0.44 0.47 0.53 0.56 0.54 0.58 0.64 0.64 0.64 0.66 0.69 0.68 0.74 0.79 0.80 0.81 0.83 0.82
0.00 0.00 0.01 0.01 0.02 0.02 0.02 0.04 0.06 0.06 0.08 0.09 0.11 0.15 0.15 0.14 0.15 0.15 0.18 0.24 0.31 0.37 0.52 0.59 0.61 0.65 0.67 0.66 0.64 0.56 0.51 0.53 0.60 0.66 0.66 0.66 0.67 0.67 0.71 0.75 0.75 0.79 0.78
0.00 0.00 0.01 0.01 0.02 0.02 0.03 0.06 0.06 0.04 0.03 0.03 0.04 0.05 0.08 0.09 0.12 0.14 0.15 0.19 0.23 0.28 0.48 0.64 0.65 0.63 0.60 0.58 0.55 0.49 0.43 0.41 0.45 0.54 0.64 0.71 0.72 0.72 0.75 0.79 0.77 0.73 0.71
0.01 0.01 0.01 0.02 0.03 0.03 0.05 0.08 0.14 0.17 0.13 0.05 0.03 0.03 0.05 0.07 0.09 0.13 0.20 0.27 0.26 0.28 0.43 0.51 0.52 0.51 0.45 0.39 0.33 0.30 0.30 0.29 0.30 0.36 0.42 0.51 0.66 0.76 0.85 0.86 0.86 0.87 0.85
0.01 0.02 0.02 0.05 0.05 0.06 0.07 0.12 0.15 0.15 0.12 0.07 0.05 0.04 0.05 0.06 0.07 0.09 0.16 0.24 0.24 0.23 0.24 0.25 0.25 0.27 0.28 0.25 0.22 0.22 0.23 0.24 0.26 0.28 0.31 0.36 0.45 0.59 0.76 0.85 0.88 0.92 0.90
0.01 0.01 0.02 0.05 0.06 0.05 0.06 0.08 0.10 0.10 0.08 0.07 0.07 0.07 0.08 0.09 0.11 0.11 0.13 0.16 0.19 0.17 0.15 0.15 0.15 0.16 0.17 0.18 0.19 0.20 0.23 0.24 0.23 0.26 0.31 0.37 0.46 0.51 0.55 0.64 0.76 0.80 0.74
0.01 0.01 0.02 0.03 0.06 0.06 0.06 0.05 0.06 0.08 0.07 0.06 0.06 0.05 0.07 0.12 0.15 0.13 0.12 0.13 0.15 0.16 0.15 0.15 0.15 0.15 0.16 0.20 0.22 0.22 0.22 0.24 0.24 0.26 0.29 0.36 0.44 0.53 0.56 0.57 0.59 0.63 0.66
0.01 0.02 0.02 0.05 0.07 0.08 0.07 0.06 0.07 0.08 0.07 0.06 0.07 0.07 0.08 0.12 0.15 0.15 0.16 0.16 0.17 0.19 0.19 0.20 0.21 0.22 0.22 0.23 0.26 0.27 0.28 0.27 0.26 0.27 0.29 0.31 0.35 0.41 0.47 0.52 0.55 0.57 0.58
0.01 0.02 0.02 0.04 0.06 0.06 0.07 0.07 0.07 0.08 0.09 0.08 0.08 0.08 0.09 0.12 0.14 0.16 0.18 0.18 0.19 0.20 0.22 0.27 0.29 0.29 0.29 0.30 0.31 0.31 0.31 0.31 0.31 0.32 0.35 0.36 0.35 0.36 0.38 0.41 0.43 0.46 0.49
0.04 0.05 0.05 0.07 0.07 0.07 0.08 0.09 0.09 0.09 0.09 0.09 0.10 0.12 0.13 0.14 0.15 0.14 0.15 0.16 0.17 0.20 0.21 0.23 0.26 0.28 0.32 0.35 0.36 0.35 0.35 0.36 0.33 0.33 0.38 0.44 0.44 0.42 0.43 0.43 0.43 0.44 0.48
0.07 0.08 0.08 0.09 0.09 0.10 0.09 0.10 0.10 0.10 0.11 0.12 0.13 0.14 0.15 0.16 0.16 0.16 0.16 0.17 0.18 0.19 0.20 0.21 0.23 0.25 0.30 0.37 0.39 0.38 0.42 0.42 0.37 0.33 0.33 0.39 0.42 0.44 0.46 0.47 0.48 0.52 0.57
0.08 0.08 0.08 0.09 0.10 0.12 0.13 0.14 0.15 0.16 0.16 0.15 0.15 0.16 0.16 0.17 0.17 0.18 0.19 0.19 0.20 0.19 0.21 0.23 0.26 0.26 0.27 0.34 0.40 0.45 0.46 0.42 0.41 0.42 0.38 0.38 0.40 0.44 0.49 0.54 0.57 0.62 0.67

GEFSGL_prec_meanprecacc_156.txt.gz
Total_Precipitation_Accumulation
0.71 0.77 0.77 0.72 0.73 0.78 0.78 0.73 0.67 0.70 0.78 0.89 0.95 1.09 1.25 1.43 1.61 1.76 1.77 1.76 1.80 1.78 1.72 1.80 1.91 2.02 2.14 2.15 2.12 1.98 1.84 1.81 1.72 1.57 1.36 1.22 1.34 1.39 1.32 1.27 1.17 1.09 1.03
0.71 0.74 0.76 0.68 0.62 0.65 0.66 0.68 0.59 0.56 0.62 0.71 0.84 1.05 1.16 1.25 1.30 1.38 1.46 1.50 1.52 1.57 1.55 1.52 1.60 1.72 1.87 2.01 2.09 2.03 2.02 1.93 1.83 1.79 1.61 1.36 1.25 1.32 1.36 1.43 1.35 1.16 1.08
0.85 0.91 0.84 0.71 0.67 0.65 0.61 0.64 0.59 0.56 0.61 0.66 0.80 0.95 1.01 1.06 1.10 1.12 1.22 1.31 1.31 1.30 1.34 1.31 1.33 1.43 1.57 1.70 1.78 1.86 1.97 2.01 2.00 1.91 1.82 1.63 1.39 1.39 1.43 1.42 1.43 1.51 1.28
1.10 1.07 0.90 0.78 0.70 0.64 0.60 0.56 0.57 0.59 0.62 0.69 0.84 0.94 0.95 0.91 1.00 1.03 1.08 1.12 1.09 1.04 1.07 1.08 1.13 1.17 1.24 1.37 1.51 1.71 1.91 2.02 2.08 2.08 1.98 1.75 1.57 1.54 1.52 1.50 1.55 1.61 1.59
1.06 0.95 0.81 0.68 0.58 0.53 0.56 0.53 0.54 0.61 0.64 0.71 0.76 0.87 0.92 0.90 0.93 0.99 0.98 0.93 0.92 0.92 0.87 0.78 0.80 0.86 0.87 0.96 1.01 1.30 1.55 1.77 1.91 1.99 1.96 1.82 1.60 1.49 1.38 1.42 1.54 1.70 1.78
0.94 0.81 0.64 0.57 0.53 0.49 0.48 0.45 0.44 0.47 0.53 0.58 0.64 0.80 0.91 0.82 0.93 0.92 0.85 0.78 0.75 0.79 0.77 0.69 0.67 0.71 0.63 0.59 0.63 0.85 1.14 1.35 1.54 1.72 1.78 1.66 1.52 1.44 1.48 1.49 1.48 1.53 1.56
0.64 0.59 0.48 0.42 0.40 0.39 0.38 0.38 0.41 0.43 0.47 0.52 0.56 0.73 0.83 0.91 0.85 0.70 0.74 0.74 0.74 0.77 0.79 0.81 0.73 0.69 0.76 0.68 0.62 0.69 0.78 0.89 1.05 1.31 1.53 1.52 1.62 1.54 1.45 1.39 1.40 1.43 1.44
0.53 0.51 0.44 0.39 0.36 0.36 0.34 0.36 0.44 0.45 0.44 0.49 0.55 0.59 0.67 0.80 0.74 0.59 0.63 0.63 0.74 0.81 0.84 0.93 0.94 0.88 0.85 0.92 0.88 0.88 0.85 0.78 0.84 0.77 0.98 1.36 1.50 1.55 1.50 1.52 1.60 1.53 1.41
0.30 0.35 0.34 0.29 0.31 0.34 0.34 0.39 0.43 0.44 0.48 0.50 0.55 0.58 0.64 0.68 0.64 0.57 0.60 0.67 0.80 0.82 0.79 0.90 0.94 0.88 0.92 0.98 1.11 1.17 1.09 0.94 1.05 1.06 0.98 1.08 1.22 1.28 1.39 1.48 1.53 1.45 1.40
0.10 0.14 0.19 0.19 0.23 0.29 0.38 0.44 0.42 0.41 0.47 0.48 0.47 0.47 0.52 0.55 0.60 0.50 0.61 0.73 0.78 0.80 0.81 0.87 1.01 0.93 0.90 0.88 0.97 1.12 1.11 0.98 0.86 0.89 0.86 0.76 0.71 0.82 1.01 1.17 1.44 1.54 1.47
0.03 0.04 0.07 0.11 0.17 0.26 0.33 0.32 0.33 0.36 0.40 0.41 0.44 0.44 0.45 0.52 0.63 0.64 0.70 0.72 0.77 0.84 0.93 0.98 0.95 1.03 0.86 0.83 0.84 0.86 0.95 0.94 0.92 0.97 1.03 0.92 0.81 0.76 0.81 0.89 1.09 1.29 1.41
0.01 0.01 0.02 0.04 0.07 0.13 0.20 0.23 0.26 0.30 0.32 0.32 0.33 0.34 0.38 0.49 0.57 0.59 0.62 0.67 0.75 0.76 0.82 0.82 0.78 0.86 0.72 0.64 0.60 0.66 0.74 0.79 0.88 1.00 1.00 0.96 0.95 0.89 0.87 0.90 0.95 1.04 1.14
0.00 0.00 0.01 0.01 0.02 0.06 0.12 0.17 0.21 0.27 0.30 0.28 0.26 0.29 0.33 0.37 0.45 0.48 0.49 0.49 0.52 0.55 0.54 0.62 0.63 0.62 0.58 0.51 0.55 0.60 0.62 0.65 0.77 0.84 0.86 0.83 0.84 0.89 0.89 0.89 0.91 0.95 0.94
0.00 0.00 0.01 0.01 0.02 0.03 0.06 0.13 0.21 0.24 0.23 0.24 0.26 0.28 0.32 0.35 0.36 0.37 0.41 0.41 0.41 0.46 0.45 0.47 0.47 0.47 0.48 0.49 0.52 0.57 0.62 0.67 0.71 0.73 0.73 0.76 0.78 0.85 0.91 0.89 0.88 0.93 0.98
0.00 0.00 0.01 0.01 0.02 0.02 0.02 0.06 0.13 0.16 0.15 0.19 0.24 0.28 0.33 0.36 0.32 0.29 0.30 0.36 0.43 0.48 0.55 0.50 0.46 0.46 0.48 0.55 0.58 0.57 0.61 0.65 0.65 0.65 0.67 0.69 0.69 0.75 0.80 0.81 0.82 0.84 0.84
0.00 0.00 0.01 0.01 0.02 0.02 0.03 0.04 0.06 0.07 0.09 0.09 0.11 0.15 0.15 0.14 0.15 0.15 0.18 0.24 0.31 0.38 0.53 0.60 0.62 0.67 0.69 0.68 0.67 0.58 0.54 0.55 0.61 0.67 0.67 0.68 0.69 0.68 0.72 0.75 0.76 0.80 0.79
0.00 0.00 0.01 0.01 0.02 0.02 0.03 0.06 0.07 0.05 0.03 0.03 0.04 0.05 0.08 0.09 0.12 0.14 0.15 0.19 0.23 0.29 0.49 0.66 0.68 0.65 0.62 0.60 0.58 0.51 0.45 0.43 0.46 0.55 0.65 0.72 0.73 0.74 0.77 0.80 0.78 0.74 0.72
0.01 0.01 0.01 0.03 0.03 0.03 0.05 0.08 0.14 0.17 0.13 0.05 0.03 0.03 0.05 0.07 0.09 0.13 0.20 0.28 0.27 0.30 0.46 0.56 0.58 0.57 0.48 0.42 0.37 0.33 0.33 0.31 0.31 0.37 0.43 0.52 0.68 0.79 0.87 0.88 0.88 0.89 0.86
0.01 0.02 0.02 0.05 0.05 0.06 0.07 0.12 0.15 0.15 0.12 0.07 0.05 0.04 0.05 0.06 0.07 0.09 0.16 0.24 0.25 0.25 0.27 0.28 0.29 0.31 0.31 0.27 0.24 0.24 0.25 0.26 0.27 0.29 0.32 0.37 0.47 0.61 0.79 0.89 0.90 0.93 0.92
0.01 0.01 0.02 0.05 0.06 0.05 0.06 0.08 0.10 0.10 0.08 0.07 0.07 0.07 0.08 0.09 0.11 0.11 0.13 0.17 0.19 0.18 0.16 0.16 0.16 0.16 0.18 0.19 0.20 0.21 0.25 0.26 0.25 0.27 0.33 0.39 0.48 0.54 0.58 0.68 0.81 0.84 0.77
0.01 0.01 0.02 0.03 0.06 0.06 0.06 0.05 0.06 0.08 0.07 0.06 0.06 0.05 0.07 0.12 0.15 0.13 0.12 0.13 0.15 0.16 0.16 0.15 0.15 0.16 0.19 0.24 0.25 0.24 0.24 0.25 0.25 0.27 0.30 0.37 0.46 0.55 0.58 0.60 0.63 0.67 0.70
0.01 0.02 0.02 0.05 0.07 0.08 0.07 0.06 0.07 0.08 0.07 0.06 0.07 0.07 0.08 0.12 0.15 0.15 0.16 0.16 0.18 0.20 0.20 0.21 0.22 0.23 0.24 0.26 0.30 0.30 0.30 0.29 0.27 0.29 0.31 0.33 0.36 0.42 0.49 0.54 0.58 0.60 0.62
0.02 0.02 0.02 0.04 0.06 0.06 0.07 0.07 0.07 0.08 0.09 0.08 0.08 0.08 0.09 0.12 0.14 0.16 0.18 0.18 0.19 0.21 0.22 0.27 0.30 0.30 0.30 0.32 0.34 0.33 0.34 0.34 0.34 0.34 0.37 0.38 0.37 0.37 0.40 0.42 0.45 0.49 0.52
0.04 0.05 0.06 0.07 0.07 0.07 0.09 0.09 0.10 0.09 0.10 0.09 0.10 0.12 0.13 0.15 0.15 0.14 0.15 0.16 0.18 0.20 0.22 0.24 0.27 0.29 0.33 0.36 0.39 0.38 0.38 0.39 0.36 0.34 0.40 0.45 0.45 0.44 0.44 0.45 0.45 0.46 0.51
0.08 0.08 0.09 0.10 0.10 0.10 0.10 0.10 0.11 0.11 0.11 0.12 0.13 0.14 0.15 0.16 0.16 0.16 0.17 0.17 0.18 0.19 0.20 0.22 0.23 0.25 0.30 0.38 0.41 0.40 0.44 0.45 0.41 0.35 0.35 0.40 0.44 0.46 0.48 0.49 0.51 0.54 0.60
0.08 0.08 0.08 0.09 0.11 0.12 0.13 0.14 0.15 0.16 0.16 0.16 0.15 0.16 0.17 0.17 0.18 0.18 0.19 0.20 0.20 0.20 0.21 0.23 0.26 0.26 0.28 0.35 0.41 0.47 0.47 0.43 0.44 0.45 0.40 0.39 0.43 0.46 0.51 0.56 0.59 0.65 0.70

GEFSGL_prec_meanprecacc_162.txt.gz
Total_Precipitation_Accumulation
0.72 0.77 0.77 0.72 0.73 0.78 0.78 0.73 0.67 0.70 0.78 0.89 0.95 1.09 1.25 1.43 1.61 1.76 1.77 1.77 1.81 1.79 1.73 1.81 1.92 2.03 2.16 2.17 2.15 2.02 1.87 1.83 1.75 1.59 1.38 1.23 1.35 1.40 1.34 1.28 1.19 1.11 1.05
0.71 0.74 0.76 0.68 0.62 0.65 0.66 0.68 0.59 0.56 0.62 0.71 0.84 1.05 1.16 1.25 1.30 1.38 1.46 1.50 1.53 1.58 1.56 1.54 1.62 1.73 1.88 2.03 2.10 2.05 2.04 1.95 1.85 1.81 1.63 1.38 1.27 1.33 1.37 1.45 1.37 1.18 1.11
0.85 0.91 0.84 0.71 0.67 0.65 0.61 0.64 0.59 0.56 0.61 0.66 0.80 0.95 1.01 1.06 1.10 1.12 1.22 1.31 1.32 1.30 1.35 1.32 1.34 1.44 1.58 1.72 1.80 1.87 1.99 2.03 2.02 1.93 1.84 1.65 1.41 1.40 1.44 1.43 1.45 1.54 1.31
1.10 1.07 0.90 0.78 0.70 0.64 0.60 0.56 0.57 0.59 0.62 0.69 0.84 0.94 0.95 0.91 1.00 1.03 1.08 1.12 1.09 1.04 1.08 1.09 1.14 1.18 1.26 1.38 1.52 1.73 1.93 2.04 2.11 2.10 2.00 1.77 1.60 1.56 1.53 1.52 1.57 1.65 1.63
1.06 0.95 0.81 0.68 0.58 0.53 0.56 0.53 0.54 0.61 0.64 0.71 0.76 0.87 0.92 0.90 0.93 0.99 0.98 0.93 0.92 0.92 0.88 0.79 0.81 0.87 0.88 0.96 1.02 1.30 1.56 1.79 1.93 2.00 1.98 1.84 1.62 1.51 1.40 1.43 1.56 1.73 1.81
0.94 0.82 0.65 0.57 0.54 0.49 0.48 0.45 0.44 0.47 0.53 0.58 0.64 0.80 0.91 0.82 0.93 0.92 0.85 0.78 0.75 0.79 0.77 0.70 0.68 0.72 0.63 0.60 0.63 0.85 1.15 1.36 1.55 1.73 1.79 1.67 1.54 1.45 1.50 1.50 1.50 1.56 1.59
0.66 0.60 0.48 0.42 0.40 0.39 0.38 0.38 0.41 0.43 0.47 0.52 0.56 0.73 0.83 0.91 0.85 0.70 0.74 0.74 0.74 0.77 0.79 0.81 0.74 0.69 0.77 0.68 0.62 0.69 0.78 0.89 1.05 1.32 1.54 1.54 1.63 1.55 1.46 1.41 1.42 1.46 1.47
0.54 0.53 0.45 0.40 0.37 0.36 0.35 0.36 0.44 0.45 0.44 0.49 0.55 0.59 0.67 0.80 0.74 0.59 0.63 0.63 0.74 0.81 0.84 0.93 0.94 0.88 0.85 0.93 0.88 0.89 0.85 0.78 0.85 0.77 0.99 1.37 1.51 1.56 1.51 1.54 1.63 1.56 1.45
0.31 0.36 0.35 0.30 0.31 0.34 0.34 0.40 0.44 0.44 0.48 0.50 0.55 0.58 0.64 0.68 0.64 0.57 0.60 0.67 0.80 0.82 0.79 0.90 0.94 0.88 0.92 0.98 1.11 1.17 1.10 0.94 1.05 1.06 0.98 1.09 1.23 1.29 1.39 1.49 1.55 1.48 1.43
0.10 0.15 0.19 0.20 0.23 0.29 0.38 0.44 0.42 0.41 0.47 0.48 0.47 0.47 0.52 0.55 0.60 0.50 0.61 0.73 0.78 0.80 0.81 0.87 1.01 0.93 0.90 0.88 0.97 1.12 1.11 0.98 0.86 0.90 0.87 0.77 0.71 0.82 1.01 1.18 1.46 1.56 1.50
0.03 0.04 0.07 0.12 0.17 0.26 0.33 0.32 0.33 0.36 0.40 0.41 0.44 0.44 0.45 0.52 0.63 0.64 0.70 0.72 0.77 0.84 0.93 0.98 0.95 1.03 0.86 0.83 0.84 0.86 0.95 0.94 0.92 0.97 1.04 0.94 0.82 0.77 0.81 0.89 1.10 1.31 1.43
0.01 0.01 0.02 0.05 0.07 0.13 0.20 0.23 0.26 0.30 0.32 0.32 0.33 0.34 0.38 0.49 0.57 0.59 0.62 0.67 0.75 0.76 0.82 0.82 0.78 0.86 0.72 0.64 0.60 0.66 0.74 0.80 0.89 1.01 1.01 0.97 0.96 0.90 0.88 0.91 0.95 1.05 1.14
0.01 0.01 0.01 0.01 0.02 0.06 0.12 0.17 0.21 0.27 0.30 0.28 0.27 0.29 0.33 0.37 0.45 0.49 0.49 0.49 0.52 0.56 0.54 0.62 0.63 0.62 0.58 0.51 0.56 0.60 0.63 0.66 0.77 0.85 0.87 0.84 0.85 0.89 0.90 0.90 0.92 0.95 0.95
0.01 0.01 0.01 0.01 0.02 0.03 0.06 0.13 0.22 0.24 0.23 0.24 0.26 0.29 0.32 0.35 0.36 0.37 0.41 0.41 0.41 0.46 0.45 0.47 0.48 0.47 0.49 0.50 0.53 0.57 0.63 0.67 0.71 0.74 0.74 0.77 0.79 0.86 0.92 0.89 0.89 0.93 0.98
0.01 0.01 0.01 0.01 0.02 0.02 0.03 0.07 0.14 0.16 0.16 0.19 0.24 0.28 0.33 0.36 0.33 0.29 0.30 0.37 0.43 0.48 0.55 0.50 0.47 0.47 0.50 0.56 0.59 0.58 0.61 0.66 0.66 0.66 0.68 0.70 0.70 0.76 0.81 0.81 0.83 0.85 0.85
0.02 0.01 0.01 0.01 0.02 0.02 0.03 0.04 0.07 0.07 0.09 0.10 0.11 0.15 0.15 0.15 0.16 0.16 0.18 0.24 0.31 0.38 0.53 0.61 0.63 0.68 0.71 0.70 0.68 0.60 0.55 0.56 0.63 0.68 0.68 0.69 0.70 0.69 0.73 0.76 0.77 0.81 0.81
0.02 0.01 0.01 0.01 0.02 0.02 0.04 0.07 0.07 0.05 0.03 0.03 0.04 0.05 0.08 0.10 0.12 0.14 0.15 0.20 0.23 0.29 0.49 0.67 0.68 0.66 0.63 0.62 0.59 0.52 0.47 0.44 0.47 0.56 0.66 0.73 0.75 0.75 0.78 0.81 0.79 0.75 0.74
0.02 0.02 0.02 0.03 0.03 0.03 0.05 0.09 0.14 0.17 0.13 0.05 0.03 0.03 0.05 0.07 0.09 0.13 0.20 0.28 0.27 0.30 0.47 0.57 0.59 0.58 0.50 0.45 0.39 0.35 0.34 0.33 0.33 0.38 0.44 0.54 0.69 0.80 0.89 0.90 0.90 0.90 0.88
0.02 0.03 0.03 0.05 0.06 0.06 0.07 0.12 0.15 0.15 0.12 0.07 0.05 0.04 0.05 0.06 0.07 0.09 0.16 0.24 0.25 0.25 0.27 0.28 0.30 0.32 0.32 0.28 0.26 0.27 0.28 0.28 0.29 0.31 0.34 0.39 0.49 0.63 0.81 0.90 0.91 0.95 0.93
0.02 0.03 0.03 0.05 0.06 0.05 0.06 0.08 0.10 0.10 0.08 0.07 0.07 0.07 0.08 0.09 0.11 0.11 0.13 0.17 0.19 0.18 0.16 0.16 0.16 0.17 0.19 0.20 0.21 0.22 0.26 0.28 0.27 0.30 0.35 0.41 0.51 0.56 0.60 0.70 0.82 0.85 0.79
0.02 0.02 0.03 0.04 0.06 0.06 0.06 0.05 0.06 0.08 0.07 0.06 0.06 0.05 0.07 0.13 0.15 0.13 0.12 0.13 0.15 0.16 0.16 0.15 0.16 0.16 0.19 0.25 0.26 0.25 0.25 0.27 0.27 0.29 0.33 0.40 0.48 0.57 0.61 0.62 0.65 0.70 0.73
0.02 0.02 0.03 0.05 0.07 0.08 0.07 0.06 0.07 0.08 0.07 0.06 0.07 0.07 0.08 0.13 0.15 0.16 0.16 0.16 0.18 0.20 0.20 0.21 0.22 0.23 0.25 0.28 0.32 0.32 0.32 0.31 0.29 0.31 0.34 0.36 0.40 0.46 0.52 0.57 0.60 0.62 0.64
0.02 0.02 0.03 0.04 0.06 0.06 0.07 0.07 0.07 0.08 0.09 0.08 0.08 0.08 0.09 0.12 0.14 0.16 0.18 0.18 0.19 0.21 0.23 0.27 0.30 0.30 0.31 0.33 0.36 0.36 0.36 0.37 0.36 0.37 0.40 0.41 0.40 0.41 0.43 0.45 0.47 0.51 0.54
0.05 0.05 0.06 0.07 0.07 0.08 0.09 0.10 0.10 0.09 0.10 0.09 0.10 0.12 0.13 0.15 0.15 0.14 0.15 0.16 0.18 0.20 0.22 0.24 0.27 0.29 0.33 0.37 0.40 0.40 0.40 0.42 0.38 0.37 0.42 0.49 0.48 0.47 0.47 0.47 0.47 0.48 0.52
0.08 0.08 0.09 0.10 0.10 0.10 0.10 0.10 0.11 0.11 0.11 0.12 0.14 0.14 0.15 0.16 0.17 0.16 0.17 0.18 0.19 0.19 0.21 0.22 0.23 0.26 0.31 0.39 0.42 0.42 0.46 0.47 0.44 0.38 0.37 0.43 0.47 0.48 0.50 0.51 0.52 0.56 0.62
0.08 0.09 0.09 0.09 0.11 0.12 0.13 0.14 0.15 0.16 0.17 0.16 0.16 0.16 0.17 0.18 0.18 0.18 0.20 0.20 0.21 0.20 0.22 0.24 0.27 0.27 0.29 0.36 0.42 0.48 0.48 0.45 0.47 0.49 0.43 0.42 0.45 0.48 0.53 0.57 0.60 0.67 0.72

GEFSGL_prec_meanprecacc_168.txt.gz
Total_Precipitation_Accumulation
0.73 0.78 0.77 0.72 0.74 0.78 0.78 0.73 0.67 0.70 0.78 0.90 0.95 1.09 1.25 1.43 1.61 1.76 1.78 1.78 1.81 1.79 1.73 1.82 1.94 2.03 2.16 2.18 2.16 2.03 1.88 1.84 1.75 1.59 1.38 1.24 1.37 1.43 1.37 1.31 1.21 1.12 1.06
0.72 0.74 0.76 0.68 0.63 0.66 0.67 0.69 0.59 0.56 0.62 0.71 0.85 1.05 1.16 1.25 1.30 1.38 1.46 1.51 1.54 1.58 1.57 1.55 1.62 1.74 1.89 2.04 2.12 2.06 2.05 1.95 1.85 1.81 1.64 1.38 1.28 1.35 1.40 1.47 1.40 1.20 1.13
0.86 0.91 0.84 0.71 0.67 0.65 0.61 0.64 0.59 0.56 0.61 0.66 0.80 0.95 1.01 1.06 1.10 1.12 1.23 1.31 1.32 1.31 1.36 1.33 1.35 1.45 1.59 1.72 1.80 1.88 1.99 2.04 2.03 1.93 1.84 1.65 1.41 1.41 1.45 1.45 1.47 1.57 1.34
1.11 1.07 0.91 0.78 0.71 0.65 0.60 0.57 0.57 0.59 0.62 0.69 0.84 0.94 0.95 0.91 1.00 1.03 1.09 1.13 1.09 1.05 1.08 1.09 1.14 1.18 1.26 1.38 1.52 1.73 1.93 2.04 2.11 2.10 2.00 1.77 1.60 1.57 1.54 1.53 1.59 1.66 1.65
1.06 0.95 0.81 0.69 0.59 0.55 0.57 0.53 0.55 0.61 0.64 0.71 0.76 0.87 0.92 0.90 0.93 0.99 0.98 0.93 0.92 0.92 0.88 0.79 0.81 0.87 0.88 0.97 1.02 1.31 1.56 1.79 1.93 2.00 1.98 1.84 1.63 1.52 1.40 1.44 1.57 1.73 1.82
0.94 0.82 0.65 0.58 0.55 0.51 0.49 0.46 0.45 0.47 0.53 0.58 0.64 0.80 0.91 0.82 0.93 0.93 0.85 0.78 0.75 0.80 0.77 0.70 0.68 0.72 0.63 0.60 0.63 0.85 1.15 1.36 1.55 1.73 1.79 1.68 1.54 1.46 1.50 1.50 1.51 1.57 1.60
0.67 0.62 0.51 0.45 0.43 0.41 0.39 0.39 0.41 0.44 0.47 0.52 0.56 0.73 0.83 0.91 0.85 0.70 0.74 0.74 0.74 0.77 0.79 0.81 0.74 0.69 0.77 0.68 0.62 0.69 0.78 0.89 1.05 1.32 1.54 1.54 1.63 1.55 1.46 1.41 1.43 1.47 1.47
0.56 0.57 0.48 0.42 0.39 0.38 0.36 0.37 0.45 0.45 0.44 0.49 0.55 0.59 0.67 0.80 0.74 0.59 0.64 0.63 0.74 0.81 0.84 0.93 0.94 0.88 0.85 0.93 0.88 0.89 0.85 0.78 0.85 0.77 0.99 1.37 1.51 1.57 1.51 1.54 1.64 1.57 1.45
0.33 0.38 0.37 0.32 0.32 0.36 0.35 0.40 0.44 0.44 0.48 0.50 0.55 0.58 0.64 0.68 0.65 0.57 0.61 0.67 0.80 0.82 0.79 0.90 0.94 0.88 0.92 0.98 1.11 1.17 1.10 0.94 1.05 1.06 0.98 1.09 1.23 1.29 1.40 1.49 1.56 1.49 1.44
0.11 0.16 0.20 0.20 0.23 0.29 0.39 0.45 0.43 0.41 0.47 0.48 0.48 0.48 0.53 0.55 0.60 0.51 0.62 0.73 0.78 0.80 0.81 0.87 1.01 0.93 0.90 0.88 0.97 1.12 1.11 0.98 0.86 0.90 0.87 0.77 0.71 0.82 1.02 1.18 1.46 1.57 1.51
0.04 0.05 0.08 0.12 0.17 0.26 0.33 0.33 0.33 0.37 0.40 0.42 0.45 0.44 0.45 0.53 0.64 0.65 0.70 0.72 0.77 0.84 0.93 0.98 0.95 1.03 0.86 0.83 0.84 0.86 0.95 0.95 0.92 0.97 1.05 0.94 0.82 0.77 0.81 0.89 1.10 1.31 1.43
0.02 0.02 0.03 0.05 0.08 0.13 0.20 0.24 0.27 0.31 0.33 0.33 0.33 0.34 0.38 0.50 0.58 0.60 0.62 0.67 0.75 0.76 0.82 0.82 0.78 0.86 0.72 0.64 0.60 0.66 0.74 0.80 0.89 1.01 1.01 0.97 0.96 0.90 0.88 0.91 0.95 1.05 1.14
0.01 0.01 0.02 0.02 0.03 0.07 0.13 0.18 0.21 0.28 0.30 0.29 0.27 0.29 0.33 0.38 0.45 0.49 0.49 0.49 0.52 0.56 0.54 0.62 0.63 0.62 0.58 0.51 0.56 0.60 0.63 0.66 0.77 0.85 0.87 0.84 0.85 0.89 0.90 0.90 0.92 0.95 0.95
0.01 0.01 0.01 0.01 0.02 0.04 0.07 0.13 0.22 0.24 0.23 0.24 0.26 0.29 0.32 0.35 0.36 0.37 0.41 0.41 0.41 0.46 0.45 0.48 0.48 0.48 0.49 0.50 0.53 0.57 0.63 0.68 0.71 0.74 0.74 0.77 0.79 0.86 0.92 0.90 0.89 0.94 0.98
0.02 0.01 0.01 0.01 0.02 0.02 0.03 0.07 0.14 0.16 0.16 0.19 0.24 0.28 0.33 0.36 0.33 0.29 0.30 0.37 0.43 0.48 0.55 0.50 0.47 0.47 0.50 0.56 0.59 0.58 0.62 0.67 0.67 0.66 0.68 0.70 0.70 0.76 0.81 0.82 0.83 0.85 0.85
0.02 0.01 0.01 0.02 0.02 0.02 0.03 0.04 0.07 0.07 0.09 0.10 0.11 0.15 0.15 0.15 0.16 0.16 0.19 0.24 0.31 0.38 0.53 0.61 0.63 0.68 0.71 0.70 0.68 0.60 0.55 0.57 0.63 0.69 0.69 0.69 0.70 0.69 0.73 0.76 0.77 0.81 0.81
0.02 0.02 0.01 0.02 0.02 0.02 0.04 0.07 0.07 0.05 0.03 0.03 0.04 0.05 0.08 0.10 0.12 0.14 0.16 0.20 0.23 0.29 0.49 0.67 0.68 0.66 0.63 0.62 0.59 0.53 0.48 0.45 0.47 0.57 0.67 0.74 0.75 0.75 0.78 0.81 0.80 0.76 0.74
0.02 0.03 0.02 0.03 0.03 0.04 0.06 0.09 0.15 0.18 0.13 0.05 0.03 0.04 0.06 0.07 0.10 0.14 0.21 0.28 0.27 0.30 0.47 0.57 0.59 0.58 0.50 0.45 0.40 0.35 0.35 0.33 0.33 0.39 0.45 0.54 0.70 0.81 0.89 0.90 0.90 0.91 0.88
0.03 0.04 0.04 0.06 0.06 0.07 0.08 0.13 0.15 0.16 0.12 0.08 0.05 0.04 0.05 0.06 0.07 0.09 0.16 0.24 0.25 0.25 0.27 0.28 0.30 0.32 0.32 0.28 0.26 0.27 0.28 0.28 0.30 0.31 0.35 0.40 0.50 0.64 0.82 0.91 0.92 0.96 0.94
0.03 0.04 0.04 0.06 0.07 0.06 0.07 0.09 0.11 0.11 0.09 0.08 0.08 0.07 0.08 0.09 0.11 0.11 0.13 0.17 0.19 0.18 0.16 0.16 0.16 0.17 0.19 0.20 0.21 0.22 0.26 0.28 0.27 0.30 0.35 0.42 0.52 0.57 0.62 0.72 0.84 0.86 0.80
0.03 0.03 0.04 0.06 0.08 0.07 0.07 0.05 0.06 0.08 0.08 0.07 0.06 0.06 0.07 0.13 0.15 0.14 0.13 0.14 0.16 0.17 0.16 0.15 0.16 0.16 0.19 0.25 0.26 0.25 0.26 0.28 0.28 0.29 0.34 0.41 0.49 0.59 0.63 0.64 0.68 0.71 0.74
0.02 0.02 0.03 0.06 0.08 0.09 0.08 0.07 0.07 0.08 0.07 0.07 0.07 0.07 0.08 0.13 0.15 0.16 0.16 0.16 0.18 0.20 0.20 0.21 0.22 0.23 0.25 0.28 0.32 0.32 0.32 0.31 0.30 0.31 0.35 0.38 0.41 0.47 0.54 0.59 0.62 0.64 0.66
0.02 0.03 0.04 0.05 0.07 0.07 0.08 0.07 0.08 0.09 0.09 0.08 0.08 0.08 0.09 0.12 0.14 0.16 0.18 0.19 0.19 0.21 0.23 0.27 0.30 0.30 0.31 0.34 0.36 0.36 0.37 0.37 0.37 0.37 0.41 0.42 0.41 0.42 0.44 0.47 0.49 0.53 0.56
0.05 0.06 0.07 0.08 0.08 0.08 0.09 0.10 0.10 0.09 0.10 0.10 0.10 0.12 0.13 0.15 0.15 0.15 0.15 0.16 0.18 0.21 0.22 0.24 0.27 0.29 0.33 0.38 0.40 0.40 0.40 0.42 0.39 0.37 0.43 0.50 0.50 0.48 0.48 0.49 0.49 0.50 0.54
0.09 0.09 0.10 0.11 0.11 0.11 0.10 0.10 0.11 0.11 0.11 0.12 0.14 0.14 0.15 0.17 0.17 0.16 0.17 0.18 0.19 0.19 0.21 0.22 0.23 0.26 0.31 0.39 0.42 0.42 0.46 0.47 0.44 0.39 0.38 0.46 0.49 0.50 0.52 0.53 0.54 0.58 0.64
0.09 0.09 0.09 0.10 0.12 0.13 0.14 0.14 0.15 0.16 0.17 0.16 0.16 0.16 0.17 0.18 0.18 0.19 0.20 0.21 0.21 0.21 0.22 0.24 0.27 0.27 0.29 0.36 0.43 0.48 0.48 0.45 0.48 0.50 0.45 0.44 0.48 0.51 0.56 0.59 0.62 0.69 0.74

GEFSGL_prec_meanprecacc_174.txt.gz
Total_Precipitation_Accumulation
0.74 0.79 0.79 0.74 0.76 0.81 0.80 0.75 0.68 0.72 0.79 0.91 0.95 1.09 1.25 1.43 1.61 1.76 1.78 1.78 1.81 1.79 1.73 1.82 1.94 2.03 2.16 2.18 2.16 2.04 1.88 1.84 1.76 1.60 1.40 1.26 1.39 1.45 1.40 1.34 1.22 1.13 1.08
0.73 0.75 0.77 0.69 0.64 0.68 0.69 0.70 0.61 0.58 0.62 0.72 0.85 1.05 1.16 1.25 1.30 1.38 1.46 1.51 1.54 1.58 1.57 1.55 1.62 1.74 1.89 2.04 2.12 2.06 2.05 1.95 1.85 1.82 1.66 1.40 1.29 1.37 1.44 1.51 1.42 1.22 1.15
0.87 0.93 0.86 0.72 0.68 0.66 0.64 0.66 0.61 0.58 0.61 0.66 0.80 0.96 1.01 1.06 1.10 1.12 1.23 1.31 1.32 1.31 1.36 1.33 1.35 1.45 1.59 1.72 1.81 1.88 2.00 2.04 2.03 1.93 1.85 1.66 1.42 1.42 1.47 1.48 1.50 1.60 1.36
1.13 1.09 0.92 0.79 0.71 0.65 0.62 0.60 0.60 0.60 0.63 0.69 0.85 0.94 0.95 0.91 1.00 1.03 1.09 1.13 1.10 1.05 1.08 1.09 1.14 1.19 1.26 1.38 1.53 1.74 1.93 2.04 2.11 2.10 2.00 1.77 1.61 1.57 1.55 1.54 1.61 1.68 1.67
1.08 0.97 0.83 0.70 0.60 0.55 0.58 0.55 0.57 0.63 0.65 0.71 0.77 0.88 0.92 0.90 0.93 1.00 0.99 0.93 0.93 0.92 0.88 0.79 0.81 0.88 0.89 0.97 1.02 1.31 1.56 1.79 1.93 2.00 1.98 1.84 1.63 1.52 1.40 1.44 1.57 1.74 1.82
0.96 0.83 0.66 0.58 0.56 0.52 0.50 0.47 0.46 0.48 0.54 0.59 0.64 0.80 0.92 0.82 0.94 0.93 0.85 0.78 0.76 0.80 0.77 0.70 0.68 0.72 0.63 0.60 0.64 0.85 1.15 1.36 1.55 1.73 1.79 1.68 1.54 1.46 1.50 1.51 1.51 1.57 1.60
0.69 0.64 0.52 0.45 0.43 0.41 0.40 0.40 0.42 0.44 0.47 0.52 0.57 0.73 0.83 0.91 0.86 0.71 0.74 0.74 0.75 0.77 0.79 0.81 0.74 0.69 0.77 0.68 0.62 0.69 0.78 0.89 1.05 1.32 1.54 1.54 1.63 1.56 1.47 1.41 1.43 1.47 1.47
0.59 0.59 0.50 0.42 0.39 0.38 0.36 0.37 0.45 0.46 0.44 0.49 0.55 0.59 0.67 0.80 0.74 0.60 0.64 0.64 0.74 0.82 0.84 0.93 0.94 0.88 0.85 0.93 0.88 0.89 0.85 0.78 0.85 0.77 0.99 1.37 1.51 1.57 1.52 1.55 1.64 1.57 1.45
0.36 0.41 0.38 0.32 0.34 0.37 0.36 0.40 0.44 0.44 0.48 0.51 0.55 0.58 0.64 0.68 0.65 0.58 0.61 0.67 0.80 0.82 0.79 0.90 0.94 0.88 0.92 0.98 1.11 1.17 1.10 0.94 1.05 1.06 0.98 1.09 1.23 1.29 1.40 1.50 1.56 1.49 1.44
0.13 0.19 0.21 0.21 0.24 0.31 0.40 0.46 0.44 0.42 0.47 0.49 0.48 0.48 0.53 0.55 0.60 0.51 0.62 0.73 0.78 0.80 0.81 0.87 1.01 0.93 0.90 0.88 0.97 1.12 1.11 0.98 0.86 0.90 0.87 0.77 0.71 0.82 1.02 1.19 1.47 1.58 1.51
0.06 0.08 0.09 0.13 0.19 0.28 0.35 0.34 0.35 0.37 0.41 0.42 0.45 0.44 0.46 0.53 0.64 0.65 0.71 0.73 0.77 0.84 0.93 0.98 0.95 1.03 0.87 0.83 0.84 0.86 0.95 0.95 0.92 0.97 1.05 0.94 0.82 0.77 0.81 0.90 1.10 1.32 1.44
0.04 0.05 0.05 0.06 0.09 0.14 0.21 0.24 0.27 0.31 0.33 0.33 0.33 0.34 0.38 0.50 0.58 0.60 0.62 0.67 0.75 0.76 0.82 0.82 0.79 0.87 0.73 0.64 0.60 0.67 0.75 0.80 0.89 1.01 1.01 0.97 0.96 0.90 0.88 0.91 0.95 1.05 1.15
0.03 0.03 0.03 0.03 0.04 0.07 0.13 0.18 0.22 0.28 0.30 0.29 0.27 0.29 0.33 0.38 0.45 0.49 0.49 0.49 0.52 0.56 0.54 0.63 0.64 0.62 0.58 0.52 0.56 0.61 0.63 0.66 0.77 0.85 0.88 0.85 0.85 0.89 0.90 0.90 0.92 0.95 0.96
0.04 0.03 0.03 0.03 0.04 0.05 0.07 0.14 0.22 0.25 0.24 0.24 0.27 0.29 0.32 0.35 0.36 0.37 0.41 0.41 0.41 0.46 0.45 0.48 0.48 0.48 0.49 0.50 0.53 0.58 0.63 0.68 0.72 0.74 0.75 0.77 0.79 0.86 0.92 0.90 0.89 0.94 0.98
0.04 0.03 0.03 0.03 0.03 0.03 0.03 0.07 0.14 0.17 0.16 0.19 0.24 0.29 0.33 0.36 0.33 0.30 0.30 0.37 0.43 0.48 0.55 0.50 0.47 0.47 0.50 0.56 0.59 0.58 0.62 0.67 0.67 0.66 0.68 0.71 0.70 0.76 0.81 0.82 0.83 0.85 0.85
0.05 0.03 0.03 0.03 0.04 0.04 0.04 0.05 0.07 0.08 0.10 0.10 0.11 0.16 0.15 0.15 0.16 0.16 0.19 0.24 0.32 0.38 0.54 0.61 0.63 0.68 0.71 0.70 0.69 0.61 0.56 0.57 0.63 0.69 0.69 0.69 0.70 0.69 0.73 0.76 0.78 0.82 0.81
0.05 0.04 0.03 0.03 0.03 0.04 0.04 0.07 0.08 0.05 0.03 0.03 0.04 0.06 0.09 0.10 0.12 0.14 0.16 0.20 0.23 0.29 0.49 0.67 0.68 0.66 0.64 0.62 0.59 0.53 0.48 0.45 0.47 0.57 0.67 0.74 0.76 0.75 0.79 0.82 0.80 0.76 0.74
0.06 0.06 0.04 0.04 0.04 0.05 0.06 0.09 0.15 0.18 0.13 0.06 0.04 0.04 0.06 0.07 0.10 0.14 0.21 0.28 0.27 0.30 0.47 0.57 0.59 0.58 0.50 0.45 0.40 0.35 0.35 0.33 0.33 0.39 0.45 0.55 0.70 0.82 0.90 0.91 0.90 0.91 0.89
0.07 0.07 0.06 0.08 0.08 0.08 0.10 0.14 0.16 0.16 0.12 0.08 0.06 0.05 0.05 0.06 0.07 0.09 0.16 0.24 0.25 0.25 0.27 0.29 0.30 0.32 0.32 0.29 0.27 0.27 0.28 0.28 0.30 0.32 0.35 0.40 0.50 0.65 0.83 0.92 0.93 0.96 0.95
0.06 0.07 0.07 0.08 0.09 0.08 0.08 0.10 0.12 0.12 0.09 0.08 0.08 0.08 0.08 0.10 0.11 0.11 0.13 0.17 0.20 0.19 0.17 0.17 0.17 0.17 0.19 0.20 0.21 0.22 0.26 0.28 0.27 0.30 0.36 0.42 0.52 0.58 0.63 0.73 0.85 0.87 0.80
0.05 0.05 0.06 0.07 0.09 0.08 0.08 0.06 0.07 0.09 0.08 0.07 0.07 0.07 0.08 0.13 0.16 0.14 0.13 0.14 0.16 0.17 0.16 0.16 0.16 0.17 0.20 0.25 0.26 0.25 0.26 0.28 0.28 0.30 0.34 0.41 0.50 0.59 0.64 0.66 0.69 0.72 0.75
0.04 0.04 0.05 0.07 0.10 0.10 0.09 0.08 0.08 0.09 0.08 0.08 0.08 0.08 0.09 0.13 0.16 0.16 0.16 0.16 0.18 0.20 0.20 0.21 0.22 0.24 0.25 0.28 0.32 0.32 0.32 0.31 0.30 0.31 0.35 0.38 0.42 0.48 0.55 0.62 0.64 0.65 0.66
0.04 0.04 0.05 0.07 0.10 0.09 0.09 0.09 0.09 0.10 0.10 0.09 0.09 0.09 0.09 0.13 0.14 0.16 0.19 0.19 0.19 0.21 0.23 0.28 0.30 0.30 0.31 0.34 0.36 0.36 0.37 0.37 0.37 0.37 0.41 0.43 0.42 0.43 0.46 0.49 0.52 0.54 0.56
0.06 0.08 0.09 0.11 0.11 0.10 0.10 0.11 0.11 0.10 0.11 0.10 0.11 0.12 0.14 0.15 0.15 0.15 0.15 0.17 0.18 0.21 0.22 0.24 0.27 0.29 0.33 0.38 0.40 0.40 0.40 0.42 0.39 0.37 0.44 0.51 0.51 0.49 0.49 0.50 0.50 0.51 0.56
0.10 0.11 0.12 0.13 0.12 0.12 0.11 0.11 0.12 0.12 0.12 0.13 0.14 0.14 0.15 0.17 0.17 0.17 0.17 0.18 0.19 0.19 0.21 0.22 0.23 0.26 0.31 0.39 0.42 0.42 0.46 0.47 0.45 0.39 0.39 0.46 0.50 0.51 0.53 0.55 0.56 0.61 0.67
0.12 0.12 0.12 0.12 0.13 0.14 0.15 0.15 0.16 0.17 0.17 0.17 0.16 0.17 0.17 0.18 0.18 0.19 0.20 0.21 0.21 0.21 0.22 0.24 0.27 0.27 0.29 0.36 0.43 0.48 0.48 0.46 0.48 0.50 0.45 0.45 0.49 0.53 0.57 0.61 0.64 0.72 0.77